Date,TemperatureHighF,TemperatureAvgF,TemperatureLowF,DewpointHighF,DewpointAvgF,DewpointLowF,HumidityHigh,HumidityAvg,HumidityLow,PressureMaxIn,PressureMinIn,WindSpeedMaxMPH,WindSpeedAvgMPH,GustSpeedMaxMPH,PrecipitationSumIn
2013-4-8,47.6,44.4,42.3,36.0,31.4,-99.9,73,65,61,29.64,0.00,9,-20,19,0.00
2013-4-9,45.8,41.3,37.7,38.0,34.9,33.0,84,78,72,29.59,29.45,14,3,17,0.00
2013-4-10,46.3,43.6,40.7,44.0,40.3,37.0,91,88,84,29.59,29.44,9,2,12,0.03
2013-4-11,47.0,44.7,42.9,45.0,42.4,40.0,94,92,88,29.43,29.23,10,2,13,0.38
2013-4-12,53.8,46.2,41.7,43.0,41.7,40.0,94,85,65,29.65,29.25,6,2,12,0.03
2013-4-13,57.4,46.2,40.5,53.0,44.0,38.0,96,92,82,29.66,29.37,12,3,19,0.06
2013-4-14,57.9,54.7,50.5,52.0,49.2,45.0,86,82,78,29.45,29.38,13,4,17,0.13
2013-4-15,62.3,55.7,49.5,47.0,43.7,40.0,88,66,46,29.78,29.48,12,5,23,0.05
2013-4-16,59.2,53.9,49.1,45.0,37.4,30.0,79,56,35,29.88,29.46,22,7,32,0.31
2013-4-17,61.1,53.9,47.2,52.0,45.5,34.0,92,74,54,29.86,29.19,23,7,42,0.84
2013-4-18,54.2,48.4,44.4,43.0,41.7,40.0,89,78,60,30.07,29.23,24,7,40,2.08
2013-4-19,54.5,47.0,40.0,42.0,38.9,36.0,89,75,52,30.43,30.08,6,2,12,0.06
2013-4-20,59.0,49.7,38.3,42.0,39.1,36.0,90,69,44,30.44,30.19,13,2,20,0.00
2013-4-21,49.1,48.7,48.0,42.0,40.4,39.0,80,73,70,30.18,30.02,12,3,16,0.00
2013-4-22,61.6,55.5,49.7,52.0,47.3,44.0,83,74,62,29.92,29.78,16,6,27,0.01
2013-4-23,63.5,55.5,48.0,50.0,46.5,43.0,88,73,56,30.09,29.92,9,3,17,0.00
2013-4-24,59.9,53.7,45.8,52.0,48.6,43.0,93,83,72,30.22,30.00,12,3,21,0.12
2013-4-25,56.1,48.3,44.7,45.0,42.0,37.0,95,80,55,30.20,30.07,7,1,13,0.47
2013-4-26,51.3,45.2,37.7,38.0,34.8,30.0,87,68,45,30.14,30.01,12,4,21,0.00
2013-4-27,51.7,46.1,39.2,39.0,36.0,34.0,82,68,55,30.16,30.05,7,2,12,0.00
2013-4-28,47.8,46.2,44.8,40.0,36.6,35.0,84,70,62,30.09,29.93,10,3,18,0.00
2013-4-29,57.0,51.5,44.7,42.0,37.0,32.0,74,59,43,30.22,29.95,14,5,19,0.01
2013-4-30,53.4,47.0,37.6,39.0,36.7,34.0,88,69,51,30.33,30.22,7,2,11,0.00